Location: ?enovice
(49.7951°N, 15.1148°E)
Time: 23:45:31
(UTC+00:00)

Daily predictions for brighter satellites

Satellite Brightness Start Highest point End
(mag) Time Altitude Azimuth Time Altitude Azimuth Time Altitude Azimuth
USA 215 3.4 16:52:33 10° ENE 16:59:06 69° SE 17:05:37 10° SW
Cosmos 1850 Rocket 4.1 16:57:10 10° S 17:02:17 58° ESE 17:07:28 10° NNE
Aureole 1 4.4 16:59:18 10° SSW 17:02:24 90° SW 17:06:07 10° NNE
Cosmos 2279 Rocket 4.0 16:56:12 10° N 17:02:31 80° E 17:08:47 10° SSE
Cosmos 2369 3.7 16:58:55 10° SSW 17:04:36 74° ESE 17:10:19 10° NNE
SL-08 RB Rocket 4.4 17:00:26 10° S 17:04:59 61° W 17:09:37 10° NNW
Cosmos 1733 Rocket 3.1 17:01:09 10° S 17:05:32 62° E 17:09:57 10° NNE
Cosmos 1844 Rocket 3.8 17:01:15 10° NNW 17:06:00 27° NE 17:10:46 10° E
BREEZE-M DEB (TANK) 4.3 17:01:52 10° SSW 17:06:09 50° SE 17:21:48 10° ENE
COBE Rocket 4.1 17:04:05 10° SE 17:08:43 49° ENE 17:13:16 10° N
Cosmos 2221 Rocket 3.6 17:04:41 10° N 17:09:14 75° ENE 17:13:47 10° SSE
Cosmos 2278 4.0 17:05:07 10° S 17:10:28 45° ESE 17:15:52 10° NE
SL-16 R/B 3.2 17:07:14 10° SSE 17:11:38 24° ESE 17:16:02 10° NE
Cosmos 1570 Rocket 4.4 17:08:09 10° NNW 17:13:13 44° ENE 17:18:12 10° SE
PAYLOAD B 4.2 17:08:31 10° SSE 17:14:00 80° ENE 17:19:32 10° NNW
SKYMED 3 4.4 17:11:19 10° NNE 17:15:26 64° ESE 17:19:31 10° S
CZ-4B DEB 4.4 17:09:58 10° SSE 17:15:26 80° WSW 17:20:58 10° NNW
BREEZE-M DEB (TANK) 3.1 17:17:28 10° W 17:19:28 34° SSW 17:22:21 10° SE
Cosmos 2278 Rocket 4.4 17:18:29 10° N 17:19:43 11° NNE 17:20:57 10° NNE
COSMO-SKYMED 1 2.6 17:20:36 10° NNE 17:24:59 86° W 17:29:19 10° SSW
Cosmos 2263 Rocket 2.5 17:19:58 10° NNW 17:25:40 74° WSW 17:31:21 10° SSE
Meteor 1-24 Rocket 4.2 17:22:22 10° N 17:27:14 35° ENE 17:32:08 10° SE
SJ-6B 4.2 17:26:35 13° E 17:28:37 19° ENE 17:31:23 10° NNE
Spot 1 3.9 17:26:17 10° NNE 17:30:28 65° ESE 17:34:31 10° S
Cosmos 1437 Rocket 3.4 17:27:27 10° SSE 17:30:45 30° E 17:34:03 10° NNE
ASTEX 1 3.5 17:25:59 10° N 17:31:00 86° W 17:35:59 10° S
H-2A R/B 4.5 17:30:50 10° ENE 17:31:09 10° NE 17:31:27 10° NE
HJ-1C 3.2 17:29:29 10° SSE 17:32:32 57° ENE 17:35:36 10° N
Cosmos 1741 Rocket 4.1 17:28:28 10° SSW 17:33:45 85° WNW 17:39:03 10° NNE
Feng Yun 1-1 Rocket 4.3 17:30:09 10° SE 17:35:27 55° ENE 17:40:44 10° N
USA 267 3.6 17:29:01 10° SE 17:35:31 65° SW 17:42:04 10° WNW
IRIDIUM 104 4.3 17:30:49 10° S 17:35:57 63° E 17:41:08 10° N
Cosmos 1814 Rocket 4.0 17:31:50 10° NNW 17:37:08 89° E 17:42:19 10° SSE
SL-4 R/B 2.8 17:33:56 10° WNW 17:38:14 54° SSW 17:42:27 12° SE
Cosmos 1844 4.4 17:35:28 10° NNW 17:40:35 36° NE 17:44:18 17° ESE
Cosmos 2084 Rocket 3.4 17:36:59 10° NW 17:40:44 52° NE 17:43:23 19° ESE
Cosmos 2208 Rocket 4.2 17:36:32 10° NNW 17:41:52 58° ENE 17:47:13 10° SE
Cosmos 1805 4.0 17:38:27 10° SSW 17:42:16 55° WNW 17:46:06 10° N
Cosmos 2227 4.2 17:37:21 10° NNW 17:43:00 87° WSW 17:48:38 10° SSE
Cosmos 1242 Rocket 4.2 17:40:17 10° SW 17:43:37 37° WNW 17:46:56 10° N
IRIDIUM 114 4.2 17:39:53 10° S 17:45:05 75° E 17:50:19 10° N
Okean-O 3.6 17:42:55 17° ESE 17:45:24 28° ENE 17:49:12 10° N
Cosmos 489 Rocket 4.4 17:40:45 10° SSW 17:47:03 71° ESE 17:53:21 10° NNE
ISS -1.2 17:45:30 10° W 17:47:50 18° SW 17:50:10 10° S
CZ-4 R/B 1.4 17:43:57 10° SSE 17:48:07 71° ENE 17:52:17 10° N
Cosmos 1697 Rocket 4.3 17:44:07 10° WSW 17:49:16 36° NW 17:54:28 10° NNE
IGS 5A 4.2 17:48:12 20° ESE 17:50:20 31° ENE 17:54:01 10° N
Meteor 1-12 Rocket 4.3 17:45:24 10° S 17:51:21 71° E 17:57:22 10° NNE
CSL-04 Debris 4.5 17:46:22 10° SE 17:51:28 45° ENE 17:56:34 10° N
BREEZE M DEB (TANK) 3.7 17:46:24 10° SSW 17:51:46 24° SSE 17:53:02 20° SE
Cosmos 1908 Rocket 3.4 17:49:33 10° S 17:53:51 70° E 17:58:10 10° NNE
OBJECT-B 1.1 17:54:14 29° NE 17:54:14 29° NE 17:56:13 10° N
IRIDIUM 103 4.3 17:49:00 10° S 17:54:14 88° E 17:59:29 10° N
Meteor 2-21 4.5 17:48:27 10° S 17:54:30 86° W 18:00:36 10° N
Cosmos 2360 Rocket 3.1 17:51:44 10° SSE 17:56:14 25° ESE 18:00:43 10° NE
USA 81 4.3 17:52:39 10° N 17:57:44 45° ENE 18:02:39 11° SSE
Cosmos 1782 Rocket 3.7 17:57:56 10° SSE 18:02:05 46° E 18:06:16 10° NNE
Cosmos 1766 3.6 17:58:11 10° SSW 18:02:05 68° WNW 18:06:02 10° N
Cosmos 1025 Rocket 3.2 18:01:21 10° N 18:05:33 48° ENE 18:07:57 23° SE
YAOGAN 1 3.3 18:02:12 10° S 18:06:26 56° W 18:10:43 10° NNW
Cosmos 2026 Rocket 4.0 18:02:16 10° SSE 18:08:07 53° E 18:14:01 10° NNE
ATLAS 2AS CENTAUR R/B 4.3 18:02:28 10° NW 18:08:39 27° N 18:14:11 11° ENE
Cosmos 968 Rocket 3.4 18:03:44 10° SSW 18:08:58 73° ESE 18:14:12 10° NNE
Okean O Rocket 2.1 18:05:56 10° S 18:10:15 62° WSW 18:14:38 10° NNW
Lacrosse 4 Rocket 1.8 18:10:03 10° S 18:13:49 37° ESE 18:13:56 37° ESE
Meteor 2-5 Rocket 3.6 18:09:40 10° NNW 18:15:15 89° WSW 18:20:48 10° S
Nadezhda 4 Rocket 4.2 18:09:44 10° SSW 18:16:04 74° W 18:22:24 10° N
CSL-04 Rocket 3.6 18:13:27 18° SSE 18:17:25 63° ENE 18:22:46 10° N
Meteor 1-15 Rocket 4.2 18:12:14 10° SSW 18:17:48 86° WNW 18:23:24 10° NNE
Cosmos 1553 Rocket 4.3 18:12:12 10° N 18:18:21 48° ENE 18:21:53 25° SE
NOSS 3-4 (A) 4.4 18:14:57 10° NW 18:21:09 40° NNE 18:24:38 26° E
NOSS 3-4 (C) 4.4 18:15:04 10° NW 18:21:15 40° NNE 18:24:44 26° E
USA 186 1.7 18:22:41 56° SE 18:23:17 76° ENE 18:26:40 10° N
Cosmos 1726 4.3 18:21:13 10° SW 18:24:24 28° WNW 18:27:38 10° N
Cosmos 2322 Rocket 2.2 18:19:19 10° S 18:24:53 59° ESE 18:30:30 10° NE
Cosmos 2237 4.2 18:19:53 10° SSW 18:25:29 61° ESE 18:31:07 10° NE
Landsat 7 3.9 18:25:23 39° ESE 18:26:45 52° ENE 18:31:20 10° N
SPOT 1/Viking Rocket 4.2 18:27:16 32° ENE 18:27:47 33° ENE 18:32:21 10° N
Cosmos 1470 2.7 18:25:02 10° SSW 18:28:52 82° W 18:32:44 10° N
deb Chang Zheng 4 4.0 18:29:32 38° ENE 18:29:32 38° ENE 18:33:11 10° N
Cosmos 1975 Rocket 3.0 18:26:11 10° N 18:30:39 90° ESE 18:33:09 25° S
Cosmos 1980 Rocket 3.8 18:26:20 10° WSW 18:31:24 34° NW 18:36:29 10° NNE
NOSS 3-3 (A) 4.3 18:27:33 10° S 18:32:26 36° ESE 18:32:26 36° ESE
NOSS 3-3 (C) 4.3 18:27:40 10° S 18:32:21 36° SE 18:32:21 36° SE
Ariane Rocket 4.2 18:36:14 26° NE 18:36:14 26° NE 18:40:05 10° N
CRYOSAT 2 4.3 18:34:19 14° S 18:38:28 89° ESE 18:43:25 10° N
Cosmos 1758 4.4 18:40:19 31° NNE 18:40:19 31° NNE 18:42:35 10° NNE
Cosmos 2292 Rocket 4.2 18:34:13 10° SSW 18:39:07 55° W 18:42:53 10° N
USA 215 3.7 18:36:54 16° NE 18:42:06 60° NNW 18:48:29 10° W
USA 281 4.5 18:40:48 21° ENE 18:42:24 24° NE 18:47:23 10° N
Aureole 1 Rocket 4.3 18:35:53 10° S 18:42:43 43° ESE 18:48:14 10° NE
IRS-1C Rocket 4.0 18:43:42 31° SSE 18:46:21 89° WSW 18:51:39 10° NNW
Cosmos 1844 Rocket 2.8 18:44:48 10° NNW 18:50:29 73° WSW 18:52:59 34° SSE
Landsat 5 3.7 18:50:26 10° N 18:54:56 75° WNW 18:59:22 10° SSW
SL-16 R/B 2.5 18:49:36 10° SW 18:55:14 67° WNW 19:00:55 10° NNE
Cosmos 1943 Rocket 4.2 18:53:58 10° N 18:56:39 14° NNE 18:57:29 13° NE
Cosmos 1092 Rocket 4.4 18:51:22 10° SSW 18:57:36 64° WNW 19:03:50 10° N
Resurs 01 Rocket 2.2 19:01:19 47° NNE 19:01:19 47° NNE 19:04:46 10° N
Terra 4.0 19:03:49 13° NNE 19:03:49 13° NNE 19:04:54 10° NNE
SJ-6B 3.8 19:02:07 36° SW 19:02:55 41° W 19:06:33 10° NNW
Cosmos 2278 Rocket 3.3 19:00:54 10° NNW 19:05:41 30° NE 19:05:41 30° NE
H-2A R/B 3.3 19:07:12 40° N 19:07:12 40° N 19:09:45 10° NNW
Resurs 1-3 4.1 19:11:26 52° SW 19:11:59 56° W 19:16:19 10° NNW
IRS-1A Rocket 4.2 19:15:25 71° E 19:15:36 71° ENE 19:21:24 10° NNW
MetOp-A 4.4 19:17:19 42° NNW 19:17:19 42° NNW 19:20:04 10° NNW
Cosmos 921 Rocket 4.1 19:12:36 10° NNW 19:15:35 38° N 19:15:35 38° N
Okean-O 3.9 19:20:30 31° SW 19:21:45 37° W 19:25:54 10° NNW
Cosmos 783 Rocket 4.5 19:17:53 10° NNW 19:22:48 77° NNW 19:22:48 77° NNW
CZ-4 R/B 4.4 19:21:22 10° WSW 19:23:30 14° W 19:25:40 10° WNW
Cosmos 1486 Rocket 4.2 19:19:10 10° SSW 19:24:28 69° WNW 19:29:49 10° NNE
Cosmos 1844 4.4 19:19:33 10° NW 19:24:53 48° WSW 19:26:12 40° SSW
Cosmos 2266 Rocket 4.2 19:26:59 58° NE 19:26:59 58° NE 19:32:22 10° NNE
Cosmos 1655 Rocket 4.4 19:28:46 49° NE 19:28:46 49° NE 19:33:33 10° NNE
DNEPR-1 R/B 4.2 19:24:14 10° SW 19:29:04 68° NW 19:30:36 46° NNE
S3M 3.8 19:23:24 10° N 19:29:42 89° WSW 19:30:10 78° S
Cosmos 773 Rocket 4.1 19:26:03 10° NNW 19:31:00 72° WNW 19:31:00 72° WNW
Cosmos 2333 Rocket 4.4 19:36:34 13° NNE 19:36:34 13° NNE 19:37:12 10° NNE
Meteor 1-21 Rocket 4.2 19:26:18 10° NNW 19:31:34 80° NNW 19:31:34 80° NNW
Cosmos 2360 Rocket 2.5 19:34:11 10° SW 19:39:47 63° WNW 19:45:24 10° NNE
Lacrosse 4 Rocket 3.7 19:48:46 10° WSW 19:50:17 19° W 19:50:17 19° W
ATLAS 2AS CENTAUR R/B 3.5 19:54:41 10° NW 20:01:32 42° NNE 20:01:35 42° NNE
Cosmos 2322 Rocket 3.9 20:04:15 10° WSW 20:09:18 31° NW 20:14:23 10° NNE
NOSS 3-4 (A) 3.9 20:05:45 10° NW 20:12:04 72° W 20:12:04 72° W
NOSS 3-4 (C) 3.9 20:05:52 10° NW 20:12:10 72° W 20:12:10 72° W
Ariane Rocket 4.4 20:16:26 35° NW 20:16:26 35° NW 20:19:36 10° NNW
USA 215 3.9 20:24:15 47° N 20:24:35 48° N 20:30:47 10° WNW
USA 281 3.7 20:27:40 54° NNW 20:27:40 54° NNW 20:32:39 10° NNW
Resurs 01 Rocket 4.4 20:38:53 15° WNW 20:38:53 15° WNW 20:40:20 10° NW
Terra 4.3 20:42:43 18° NNW 20:42:43 18° NNW 20:43:56 10° NNW
Cosmos 1943 Rocket 4.0 20:36:36 10° NNW 20:38:59 24° N 20:38:59 24° N
Cosmos 2278 Rocket 3.9 20:44:45 10° NW 20:47:32 29° NW 20:47:32 29° NW
Cosmos 2369 Rocket 4.3 20:56:33 10° NNW 20:58:48 20° N 20:58:48 20° N
Cosmos 2333 Rocket 4.4 21:18:31 21° N 21:18:31 21° N 21:21:07 10° NNE
ATLAS 2AS CENTAUR R/B 4.3 21:45:53 10° NW 21:49:00 28° NW 21:49:00 28° NW
